TimeCST,TemperatureF,Dew PointF,Humidity,Sea Level PressureIn,VisibilityMPH,Wind Direction,Wind SpeedMPH,Gust SpeedMPH,PrecipitationIn,Events,Conditions,WindDirDegrees,DateUTC
12:15 AM,12.2,9.1,88,30.11,10.0,SSE,10.4,-,N/A,Snow,Light Snow,160,2014-02-08 06:15:00
12:35 AM,12.2,9.1,88,30.11,10.0,South,8.1,-,N/A,,Overcast,170,2014-02-08 06:35:00
12:55 AM,12.2,9.3,88,30.07,10.0,SSE,11.5,-,N/A,,Overcast,160,2014-02-08 06:55:00
1:15 AM,12.6,9.3,87,30.08,10.0,SSE,10.4,-,N/A,,Overcast,160,2014-02-08 07:15:00
1:35 AM,12.7,9.5,87,30.11,10.0,South,10.4,-,N/A,,Overcast,180,2014-02-08 07:35:00
1:55 AM,12.6,9.3,87,30.06,10.0,SSE,11.5,-,N/A,,Overcast,150,2014-02-08 07:55:00
2:15 AM,12.4,9.3,88,30.06,10.0,SSE,11.5,-,N/A,,Overcast,150,2014-02-08 08:15:00
2:35 AM,12.2,9.3,88,30.06,10.0,SSE,9.2,-,N/A,,Overcast,150,2014-02-08 08:35:00
2:55 AM,12.2,9.3,88,30.07,10.0,SSE,8.1,-,N/A,,Overcast,160,2014-02-08 08:55:00
3:15 AM,12.6,9.5,88,30.06,10.0,South,9.2,-,N/A,Snow,Light Snow,170,2014-02-08 09:15:00
3:35 AM,12.7,10.0,89,30.05,10.0,SSE,9.2,-,N/A,,Overcast,160,2014-02-08 09:35:00
3:55 AM,13.1,10.2,88,30.05,10.0,SSE,6.9,-,N/A,,Overcast,160,2014-02-08 09:55:00
4:15 AM,13.1,10.4,89,30.04,10.0,SSE,8.1,-,N/A,,Overcast,150,2014-02-08 10:15:00
4:35 AM,13.5,10.9,90,30.03,10.0,SSE,10.4,-,N/A,,Overcast,150,2014-02-08 10:35:00
4:55 AM,13.6,11.1,90,30.02,10.0,SSE,9.2,-,N/A,,Overcast,160,2014-02-08 10:55:00
5:15 AM,13.8,11.3,90,30.00,10.0,SSE,11.5,-,N/A,,Overcast,150,2014-02-08 11:15:00
5:35 AM,14.0,11.3,89,30.03,10.0,South,8.1,-,N/A,,Overcast,180,2014-02-08 11:35:00
5:55 AM,14.0,11.3,89,30.01,10.0,SSE,9.2,-,N/A,,Overcast,160,2014-02-08 11:55:00
6:15 AM,14.4,11.7,89,30.01,10.0,South,8.1,-,N/A,,Overcast,170,2014-02-08 12:15:00
6:35 AM,14.5,12.0,90,30.01,10.0,SSE,10.4,-,N/A,,Overcast,160,2014-02-08 12:35:00
6:55 AM,14.9,12.2,89,30.00,10.0,South,9.2,-,N/A,,Overcast,170,2014-02-08 12:55:00
7:15 AM,14.9,12.6,90,30.00,10.0,South,9.2,-,N/A,,Overcast,180,2014-02-08 13:15:00
7:35 AM,15.3,12.9,90,30.01,10.0,South,8.1,-,N/A,,Overcast,180,2014-02-08 13:35:00
7:55 AM,15.8,13.3,90,30.02,10.0,South,9.2,-,N/A,,Overcast,170,2014-02-08 13:55:00
8:15 AM,15.8,13.6,91,30.02,10.0,South,10.4,-,N/A,,Overcast,170,2014-02-08 14:15:00
8:35 AM,16.5,14.0,90,30.02,10.0,South,8.1,-,N/A,,Overcast,170,2014-02-08 14:35:00
8:55 AM,17.1,14.7,91,30.02,7.0,South,6.9,-,N/A,,Overcast,170,2014-02-08 14:55:00
9:15 AM,18.0,15.4,90,30.01,7.0,South,8.1,-,N/A,,Mostly Cloudy,180,2014-02-08 15:15:00
9:35 AM,18.5,15.6,89,30.02,7.0,South,8.1,-,N/A,,Scattered Clouds,190,2014-02-08 15:35:00
9:55 AM,19.4,16.3,88,30.02,7.0,SSW,6.9,-,N/A,,Scattered Clouds,210,2014-02-08 15:55:00
10:15 AM,21.0,17.1,85,30.02,7.0,SSW,6.9,-,N/A,,Mostly Cloudy,200,2014-02-08 16:15:00
10:35 AM,21.9,15.4,76,30.02,10.0,West,10.4,-,N/A,,Scattered Clouds,270,2014-02-08 16:35:00
10:55 AM,22.1,15.3,75,30.03,10.0,West,11.5,-,N/A,,Clear,280,2014-02-08 16:55:00
11:15 AM,22.1,15.4,76,30.02,10.0,West,10.4,-,N/A,,Clear,280,2014-02-08 17:15:00
11:35 AM,22.3,15.4,75,30.02,10.0,WNW,10.4,-,N/A,,Clear,290,2014-02-08 17:35:00
11:55 AM,22.3,14.9,73,30.02,10.0,WNW,9.2,-,N/A,,Clear,290,2014-02-08 17:55:00
12:15 PM,22.5,14.2,71,30.02,10.0,West,6.9,-,N/A,,Clear,270,2014-02-08 18:15:00
12:35 PM,22.6,14.2,70,30.02,10.0,West,8.1,-,N/A,,Clear,260,2014-02-08 18:35:00
12:55 PM,23.5,14.5,69,30.01,10.0,West,5.8,-,N/A,,Clear,270,2014-02-08 18:55:00
1:15 PM,24.3,15.1,68,30.01,10.0,West,5.8,-,N/A,,Clear,260,2014-02-08 19:15:00
1:35 PM,24.3,15.1,68,30.02,10.0,West,4.6,-,N/A,,Clear,270,2014-02-08 19:35:00
1:55 PM,24.6,15.4,68,30.01,10.0,NW,6.9,-,N/A,,Clear,310,2014-02-08 19:55:00
2:15 PM,24.4,15.4,69,30.02,10.0,WNW,5.8,-,N/A,,Clear,300,2014-02-08 20:15:00
2:35 PM,24.4,15.4,69,30.03,10.0,NW,6.9,-,N/A,,Clear,320,2014-02-08 20:35:00
2:55 PM,24.6,15.3,68,30.02,10.0,NNW,5.8,-,N/A,,Clear,330,2014-02-08 20:55:00
3:15 PM,24.6,16.2,70,30.03,10.0,NW,6.9,-,N/A,,Clear,320,2014-02-08 21:15:00
3:35 PM,25.0,16.3,70,30.04,10.0,NNW,6.9,-,N/A,,Clear,330,2014-02-08 21:35:00
3:55 PM,24.3,15.6,70,30.03,10.0,NNW,4.6,-,N/A,,Clear,340,2014-02-08 21:55:00
4:15 PM,24.6,15.8,69,30.04,10.0,North,4.6,-,N/A,,Clear,360,2014-02-08 22:15:00
4:35 PM,24.6,16.3,71,30.06,10.0,NNW,5.8,-,N/A,,Mostly Cloudy,340,2014-02-08 22:35:00
4:55 PM,23.7,18.3,80,30.08,2.5,NNW,6.9,-,N/A,Snow,Light Snow,340,2014-02-08 22:55:00
5:15 PM,22.6,19.8,89,30.08,2.5,NNW,5.8,-,N/A,Snow,Light Snow,330,2014-02-08 23:15:00
5:35 PM,22.8,20.1,89,30.11,4.0,NNW,4.6,-,N/A,Snow,Light Snow,330,2014-02-08 23:35:00
5:55 PM,22.6,20.3,91,30.11,3.0,NNW,6.9,-,N/A,Snow,Light Snow,340,2014-02-08 23:55:00
6:15 PM,22.1,20.3,93,30.12,4.0,NNW,3.5,-,N/A,Snow,Light Snow,340,2014-02-09 00:15:00
6:35 PM,21.9,20.7,95,30.12,3.0,NNW,5.8,-,N/A,Snow,Light Snow,340,2014-02-09 00:35:00
6:55 PM,21.7,21.0,97,30.13,4.0,NNW,4.6,-,N/A,Snow,Light Snow,340,2014-02-09 00:55:00
7:15 PM,21.7,21.2,98,30.14,2.5,NW,6.9,-,N/A,Snow,Light Snow,320,2014-02-09 01:15:00
7:35 PM,21.4,20.3,96,30.14,4.0,NNW,5.8,-,N/A,Snow,Light Snow,340,2014-02-09 01:35:00
7:55 PM,21.2,20.3,96,30.14,1.5,NNW,3.5,-,N/A,Snow,Light Snow,340,2014-02-09 01:55:00
8:15 PM,21.0,20.3,97,30.14,2.5,NNW,5.8,-,N/A,Snow,Light Snow,330,2014-02-09 02:15:00
8:35 PM,21.0,20.3,97,30.12,5.0,North,3.5,-,N/A,Snow,Light Snow,350,2014-02-09 02:35:00
8:55 PM,20.8,19.8,96,30.14,7.0,North,6.9,-,N/A,Snow,Light Snow,350,2014-02-09 02:55:00
9:15 PM,20.7,19.2,94,30.14,7.0,North,5.8,-,N/A,,Overcast,10,2014-02-09 03:15:00
9:35 PM,20.7,19.2,94,30.16,7.0,NNW,3.5,-,N/A,,Scattered Clouds,340,2014-02-09 03:35:00
9:55 PM,20.5,19.2,95,30.14,10.0,NNE,4.6,-,N/A,,Scattered Clouds,20,2014-02-09 03:55:00
10:15 PM,20.3,18.9,94,30.17,7.0,Calm,Calm,-,N/A,,Scattered Clouds,0,2014-02-09 04:15:00
10:35 PM,20.1,18.5,93,30.19,10.0,North,3.5,-,N/A,,Mostly Cloudy,360,2014-02-09 04:35:00
10:55 PM,19.4,17.4,92,30.18,10.0,NNE,4.6,-,N/A,,Scattered Clouds,20,2014-02-09 04:55:00
11:15 PM,19.4,17.4,92,30.20,10.0,North,4.6,-,N/A,,Clear,350,2014-02-09 05:15:00
11:35 PM,19.2,16.2,88,30.21,10.0,NNW,4.6,-,N/A,,Clear,340,2014-02-09 05:35:00
11:55 PM,19.0,15.8,87,30.22,10.0,NNW,6.9,-,N/A,,Clear,330,2014-02-09 05:55:00